Tracking 21992 objects as of 29-Nov-2020
HD Live streaming from Space Station
objects crossing your sky now

COSMOS 1030 DEB

Track COSMOS 1030 DEB now!


NORAD ID: 39447
Int'l Code: 1978-083T
Perigee: 3,815.0 km
Apogee: 36,596.0 km
Inclination: 67.6 °
Period: 718.6 minutes
Semi major axis: 26576 km
RCS: Unknown
Launch date: September 6, 1978
Source: Commonwealth of Independent States (former USSR) (CIS)
Launch site: PLESETSK MISSILE AND SPACE COMPLEX (PKMTR)

Note: This is SATELLITE DEBRIS
aabbcc
Your satellite tracking list
Your tracking list is empty




NASA's NSSDC Master Catalog

Two Line Element Set (TLE):
1 39447U 78083T   20266.47819862 +.00000508 +00000-0 +00000-0 0  9997
2 39447 067.6175 015.6396 6167305 024.7649 355.1474 02.00380973050041
Source of the keplerian elements: AFSPC